SL-16 DEB, 22347

Orbit data source: Space-Track

SL-16 DEB, 22347 is space debris in LEO originally from a launch on Fri, 25 Dec 1992 UTC launched from the Tyuratam Missile And Space Complex (TTMTR). Debris objects in space refer to the collection of defunct objects orbiting the Earth. Examples of debris include non-operational satellites, rocket bodies, and fragments generated from explosions, collisions, or faulty payload assembly.

Loading next visibility...
Identifier
22347, 1992-093AL
Orbit
LEO
Country
Flag of CISCIS
Related business
Manufacturer
Unknown
Mission
Spacecraft
Bus & Motor
Unknown
Mass
Unknown
Launch date (UTC)
1992-12-25 (33 years ago)
Launch vehicle
Unknown
Launch site
Tyuratam Missile And Space Complex (TTMTR)
Object type
Payload
Rocket body
Debris
Shape & HBR
Unknown shape, 0.1 m
Radar Cross Section
Small (<0.1 m²)

Expand to show TLE details & history
Last TLE update: 18 hours ago

TLE from 18 hours ago
0 SL-16 DEB
1 22347U 92093AL  26126.56215025  .00001799  00000-0  99249-3 0  9996
2 22347  70.8356 168.7770 0153427  85.4811  66.0634 14.07014788684287
Epoch: 2026-05-06T13:29Z
TLE epoch observation values (Epoch: 2026-05-06T13:29:29.781Z)
Latitude
25.28092°
Longitude
-87.41471°
Altitude
828.45 km
Speed
7.464 km/s
True Right ascension
22h 37m 31s
True Declination
25° 08' 59"
Sunlit
Object was in daylight at epoch
Visualization orbit readout
Latitude
Unknown
Longitude
Unknown
Altitude
Unknown
Speed
Unknown
Apparent Right ascension
Unknown
Apparent Declination
Unknown
Sunlit
N/A
Visualization observer readout
Local Sidereal Time
15:25:53
Azimuth
Unknown
Elevation
Unknown
Doppler factor
Unknown
Orbital elements
Apogee altitude
978.722 km
Perigee altitude
756.385 km
Semi-major axis
7,245.69 km
Eccentricity
0.01534
Inclination
70.8356°
RAAN
168.777°
Arg. of periapsis
85.4811°
True anomaly
67.68272°
Mean anomaly
66.0634°
Eccentric anomaly
66.87182°
Mean motion
3.51903 °/min
Orbital period
102.3 mins
BSTAR
0.00099249
Loading maneuver chart data...
Computing Atmospheric mass density...
Loading historical data...
Loading historical data...
Loading historical data...
Loading historical data...
Loading historical data...
Loading historical data...
Loading historical data...

Documentation

Showing up to 5 results
|